Flag for Germany Weather for the Past 2 Weeks in Neunkirchen (Saar), Saarland, Germany

Now
36 °F

Drizzle. Partly sunny.


Feels Like: 26 °F
Forecast: 36 / 39 °F
Wind: 15 mph from West

Location: Saarbruecken / Ensheim

Current Time: Feb 10, 2016 at 5:34:10 PM

Latest Report: Feb 10, 2016 at 5:20 PM


Visibility: N/A

Pressure: 29.50 "Hg

Humidity: 93%

Dew point: 34 °F

Location of Neunkirchen (Saar)Location

Historic Weather in Neunkirchen (Saar) — Graph

°F

Neunkirchen (Saar) Temperature Yesterday

Maximum temperature yesterday: 50 °F (at 12:50 PM)
Minimum temperature yesterday: 37 °F (at 8:50 PM)
Average temperature yesterday: 43 °F

High & Low Weather Summary for the Past Weeks

 TemperatureHumidityPressure
High54 °F (Feb 1, 1:20 AM)100% (Jan 28, 9:20 AM)30.42 "Hg (Jan 28, 9:20 AM)
Low34 °F (Feb 3, 8:50 PM)57% (Jan 29, 4:20 PM)29.09 "Hg (Feb 9, 3:20 PM)
Average44 °F86%30.00 "Hg
* Reported Jan 26 4:20 PM — Feb 10 4:20 PM, Neunkirchen (Saar), Weather by CustomWeather, © 2016

Note: Actual official high and low records may vary slightly from our data, if they occured in-between our weather recording intervals... More about our weather records

Advertising

Neunkirchen (Saar) Weather History for the Previous 24 Hours

 ConditionsComfort  
Time TempWeatherWind HumidityBarometerVisibility
4:20 PM
Wed, Feb 10
37 °FDrizzle. Partly sunny.18 mph87%29.50 "Hg4 mi
3:50 PM37 °FDrizzle. Partly sunny.12 mph93%29.47 "Hg5 mi
3:20 PM36 °FDrizzle. Partly sunny.18 mph93%29.47 "Hg4 mi
2:50 PM36 °FDrizzle. Partly sunny.20 mph93%29.47 "Hg4 mi
2:20 PM36 °FDrizzle. Partly sunny.20 mph93%29.47 "Hg5 mi
1:50 PM36 °FLight rain. Broken clouds.16 mph100%29.47 "Hg5 mi
1:20 PM36 °FLight rain. Fog.17 mph93%29.47 "Hg2 mi
12:50 PM36 °FLight rain. Fog.20 mph93%29.47 "Hg3 mi
12:20 PM36 °FLight rain. Partly sunny.17 mph93%29.47 "Hg4 mi
11:50 AM36 °FLight rain. Partly sunny.18 mph93%29.47 "Hg4 mi
11:20 AM36 °FLight rain. Partly sunny.18 mph93%29.45 "Hg4 mi
10:50 AM34 °FLight snow. Partly sunny.17 mph100%29.45 "Hg4 mi
10:20 AM34 °FLight snow. Partly sunny.20 mph93%29.45 "Hg4 mi
9:50 AM34 °FLight snow. Fog.20 mph93%29.45 "Hg3 mi
9:20 AM34 °FLight snow. Fog.21 mph93%29.42 "Hg2 mi
8:50 AM34 °FLight snow. Fog.17 mph93%29.42 "Hg2 mi
8:20 AM36 °FDrizzle. Partly sunny.18 mph87%29.42 "Hg5 mi
7:50 AM36 °FPartly sunny.20 mph87%29.42 "HgN/A
7:20 AM36 °FPassing clouds.17 mph87%29.42 "HgN/A
6:50 AM36 °FPartly cloudy.16 mph93%29.42 "HgN/A
6:20 AM34 °FPassing clouds.14 mph93%29.42 "HgN/A
5:50 AM36 °FLight rain. Partly cloudy.16 mph87%29.42 "Hg6 mi
5:20 AM36 °FPassing clouds.15 mph87%29.42 "HgN/A
4:50 AM36 °FPassing clouds.15 mph87%29.39 "HgN/A
4:20 AM36 °FPassing clouds.15 mph87%29.39 "HgN/A
3:50 AM36 °FPassing clouds.12 mph87%29.39 "HgN/A
3:20 AM36 °FPassing clouds.12 mph87%29.39 "HgN/A
2:20 AM34 °FLow clouds.10 mph93%29.36 "HgN/A
1:20 AM34 °FPassing clouds.13 mph93%29.36 "HgN/A
12:20 AM36 °FPassing clouds.15 mph93%29.36 "HgN/A
11:50 PM
Tue, Feb 9
37 °FPassing clouds.14 mph87%29.33 "HgN/A
11:20 PM37 °FPassing clouds.15 mph87%29.33 "HgN/A
10:20 PM37 °FPartly cloudy.14 mph87%29.33 "HgN/A
9:50 PM37 °FPartly cloudy.12 mph81%29.30 "HgN/A
9:20 PM37 °FPassing clouds.13 mph81%29.30 "HgN/A
8:50 PM37 °FPartly cloudy.16 mph81%29.27 "HgN/A
8:20 PM39 °FPartly cloudy.17 mph75%29.24 "HgN/A
7:50 PM39 °FPartly cloudy.18 mph75%29.24 "HgN/A
7:20 PM39 °FPassing clouds.21 mph75%29.21 "HgN/A
6:50 PM41 °FPartly cloudy.25 mph76%29.18 "HgN/A
6:20 PM45 °FPartly cloudy.29 mph71%29.15 "HgN/A
5:50 PM46 °FPartly cloudy.29 mph71%29.12 "HgN/A
5:20 PM46 °FSprinkles. Broken clouds.24 mph76%29.09 "HgN/A
Weather by CustomWeather, © 2016

See weather overviewHow to use our weather pages